Location: ShareBrained
(45.5589°N, 122.6491°W)
Time: 11:51:18
(UTC-08:00)

NOAA 19 - Visible Passes

Search period start: 29 January 2023 00:00
Search period end: 08 February 2023 00:00
Orbit: 841 x 859 km, 99.1° (Epoch: 29 January)

Date Brightness Start Highest point End Pass type
(mag) Time Alt. Az. Time Alt. Az. Time Alt. Az.
29 Jan 6.8 17:59:39 10° E 18:02:16 14° NE 18:04:54 10° NNE visible
29 Jan 5.0 19:41:34 72° ESE 19:42:00 77° ENE 19:47:34 10° NNW visible
29 Jan 7.7 21:23:33 16° W 21:23:33 16° W 21:26:39 10° NW visible
30 Jan 7.0 17:49:05 10° ENE 17:50:31 11° NE 17:51:57 10° NE visible
30 Jan 5.1 19:29:14 55° ESE 19:30:04 61° ENE 19:35:33 10° N visible
30 Jan 7.4 21:11:13 21° W 21:11:13 21° W 21:15:13 10° NW visible
31 Jan 5.4 19:16:53 41° ESE 19:18:09 49° ENE 19:23:29 10° N visible
31 Jan 7.1 20:58:52 26° W 20:59:01 26° W 21:03:38 10° NW visible
01 Feb 5.6 19:04:33 32° ESE 19:06:15 40° ENE 19:11:23 10° N visible
01 Feb 6.7 20:46:32 32° WSW 20:46:56 32° W 20:51:55 10° NNW visible
02 Feb 5.9 18:52:13 24° ESE 18:54:22 32° ENE 18:59:15 10° N visible
02 Feb 6.3 20:34:11 39° WSW 20:34:53 41° W 20:40:07 10° NNW visible
03 Feb 6.1 18:39:52 18° E 18:42:31 26° ENE 18:47:03 10° N visible
03 Feb 5.9 20:21:51 46° SW 20:22:50 51° W 20:28:17 10° NNW visible
04 Feb 6.4 18:27:32 14° E 18:30:41 22° ENE 18:34:48 10° N visible
04 Feb 5.5 20:09:30 49° SSW 20:10:50 65° WSW 20:16:23 10° NNW visible
05 Feb 6.6 18:15:17 10° E 18:18:52 18° ENE 18:22:28 10° NNE visible
05 Feb 5.2 19:57:11 47° S 19:58:50 81° WSW 20:04:26 10° NNW visible
05 Feb 8.0 21:39:09 11° W 21:40:20 12° W 21:42:13 10° WNW visible
06 Feb 6.8 18:04:10 10° E 18:07:05 15° NE 18:10:00 10° NNE visible
06 Feb 5.1 19:44:51 41° SSE 19:46:52 82° ENE 19:52:27 10° NNW visible
06 Feb 7.8 21:26:49 14° WSW 21:28:11 15° W 21:31:19 10° NW visible
07 Feb 7.0 17:53:24 10° ENE 17:55:19 12° NE 17:57:14 10° NNE visible
07 Feb 5.1 19:32:30 34° SE 19:34:55 66° ENE 19:40:27 10° N visible
07 Feb 7.5 21:14:29 17° WSW 21:16:02 19° W 21:19:58 10° NW visible
